Other Public Products
Issued by NWS Charleston, SC

Current Version | Previous Version | Graphics & Text | Print | Product List | Glossary On
Versions: 1 2 3 4 5 6 7 8 9 10 11 12 13 14 15 16 17 18 19 20 21 22 23 24 25 26 27 28 29 30 31 32 33 34 35 36 37 38 39 40 41 42 43 44 45 46 47 48 49 50
251
FPUS82 KCHS 231527
OPUCHS

TEST...KCHS/KSAV Gateway Observations...TEST
National Weather Service Charleston SC
1100 AM EDT SAT SEP 23 2017

NOTE: "fair" indicates few or no clouds below 12,000 feet with no
significant weather and/or obstructions to visibility.

SCZ050-WAZ558-NCZ071-TXZ119-213-PAZ071-DCZ001-FLZ074-172-MI076-
NYZ176-178-MAZ016-IL014-TNZ027-NJZ106-GAZ044-MD014-231600-

...Gateway Observations for Charleston International...

CITY           SKY/WX    TMP DP  RH WIND       PRES   REMARKS
Chas Airport   MOSUNNY   82  72  71 NE9       30.03S
Seattle        MOCLDY    55  48  77 SE6       30.08R
Charlotte      SUNNY     83  67  58 NE7       30.09S
Dallas DFW     SUNNY     82  71  69 S8        29.96R
Dallas Love    SUNNY     81  69  67 S6        29.97R
Philladelphia  MOSUNNY   80  57  45 N14       30.07S
Wash National  MOSUNNY   81  58  45 N7        30.10S
Baltimore      MOSUNNY   79  61  53 VRB5      30.09S
Miami          LGT RAIN  84  75  74 NE8       29.86R HX  92
Detroit        MOSUNNY   79  68  69 CALM      30.16R
Newark         MOSUNNY   81  55  40 N15       30.05F
Laguardia      MOSUNNY   77  56  48 N12G23    30.05S
J F K          MOSUNNY   79  60  52 N15G22    30.06R
Boston Logan   CLOUDY    69  61  75 N14       30.04S
Ft. Lauderdale MOSUNNY   86  77  74 NE12      29.85S HX  97
Chicago O`Hare SUNNY     85  65  51 S3        30.10S
Chicago Midway SUNNY     85  67  54 SW3       30.10S
Houston Bush   MOSUNNY   82  75  79 SE5       29.94R
Houston Hobby  PTSUNNY   84  75  74 E6        29.93R HX  92
Nashville      SUNNY     81  69  67 CALM      30.09R
Atlanta        MOSUNNY   80  67  64 E5        30.08S

$$

GAZ044-118-TXZ119-213-NCZ071-DCZ001-MDZ014-506-PAZ021-071-NJZ106-
NYZ176-178-MAZ106-OHZ011-021-055-MIZ076-KYZ091-ILZ014-INZ047-
MNZ060-ONZ431-231600-

...Gateway Observations for Savannah International...

CITY           SKY/WX    TMP DP  RH WIND       PRES   REMARKS
Savannah Arpt  PTSUNNY   82  74  76 NE9       30.02F
Atlanta        MOSUNNY   80  67  64 E5        30.08S
Charlotte      SUNNY     83  67  58 NE7       30.09S
Dallas DFW     SUNNY     82  71  69 S8        29.96R
Houston Bush   MOSUNNY   82  75  79 SE5       29.94R
Wash National  MOSUNNY   81  58  45 N7        30.10S
Wash Dulles    MOSUNNY   78  57  48 N6        30.11S
Baltimore      MOSUNNY   79  61  53 VRB5      30.09S
Philadelphia   MOSUNNY   80  57  45 N14       30.07S
Newark         MOSUNNY   81  55  40 N15       30.05F
Laguardia      MOSUNNY   77  56  48 N12G23    30.05S
J F K          MOSUNNY   79  60  52 N15G22    30.06R
Boston         CLOUDY    69  61  75 N14       30.04S
Pittsburg      MOSUNNY   73  57  57 CALM      30.17S
Akron          SUNNY     82  58  43 E5        30.18R
Cleveland      SUNNY     84  59  42 VRB3      30.18R
Cincinnati     SUNNY     82  68  62 NE5       30.14S
Columbus       SUNNY     78  65  64 NE5       30.14S
Detroit        MOSUNNY   79  68  69 CALM      30.16R
Chicago O`Hare SUNNY     85  65  51 S3        30.10S
Minneapolis    MOSUNNY   79  70  74 S9        29.97F
Indianapolis   MOSUNNY   84  67  56 CALM      30.14R
Toronto Canada MOSUNNY   82  61  47 W3        30.13S

$$




USA.gov is the U.S. government's official web portal to all federal, state and local government web resources and services.